Content
SEND FEEDBACK

Daily
Averages
Monthly
Summary
United States of America

BROOKHAVEN, MISSISSIPPI


Home > North America > United States > Mississippi
Elevation: 132 meters     Latitude: 31 33N     Longitude: 090 27W

WEATHER
 
SELECT A DAY
Number of Records: 80,622;   Date Range: 4/2/11 - 9/17/14
 
SHARE

PRINT THIS DATA

[ ← Previous Day ]
WEATHER ALMANAC - 5 FEBRUARY, 2013
[ Next Day → ]
[ °F ]   °C
Weather ElementAverageHighLow
Temperature14.7 °C21 °C (2:55 pm)11 °C (2:15 am)
Dewpoint12.8 °C15 °C (10:15 am)9 °C (12:35 am)
Humidity89.7 %100 % (2:15 am)64 % (2:55 pm)
Barometer1016.3 hPa1018.3 hPa (10:55 pm)1014.2 hPa (2:35 am)
Wind Speed3.2 km/h13 km/h (2:15 pm)
Weather ElementAverage
Visibility9.3 km
Wind DirectionE (94.6 °)

Weather ElementTotal
Precipitation---
Heating Degree Days2.3 (Base 18.3)
Growing Degree Days6 (Base 10)
Averaged from 71 records on 5 February, 2013
WEATHER CONDITIONS BREAKOUT
WIND DIRECTION BREAKOUT
WEATHER BY HOUR - 5 FEBRUARY, 2013
[ °F ]   °C
Local TimeTemperatureDewpointHumidityBarometerVisibilityWind DirectionWind SpeedGust SpeedPrecipitationEventsConditions
12:35 AM12 °C9 °C82 %1014.9 hPa16.1 kmCalmOvercast
12:55 AM12 °C10 °C88 %1015.2 hPa16.1 kmSE (140°)7.4 km/hOvercast
1:15 AM12 °C11 °C94 %1014.9 hPa16.1 kmSSE (160°)7.4 km/hOvercast
1:35 AM12 °C11 °C94 %1014.9 hPa9.7 kmSouth (170°)7.4 km/hOvercast
1:55 AM12 °C11 °C94 %1014.6 hPa1.6 kmSSE (150°)7.4 km/hOvercast
2:15 AM11 °C11 °C100 %1014.6 hPa0.3 kmSouth (170°)9.3 km/hFogFog
2:35 AM11 °C11 °C100 %1014.2 hPa0.3 kmSE (140°)9.3 km/hFogFog
2:55 AM11 °C11 °C100 %1014.2 hPa0.3 kmSSE (160°)5.6 km/hFogFog
3:15 AM11 °C11 °C100 %1014.2 hPa0.3 kmCalmFogFog
3:35 AM11 °C11 °C100 %1014.6 hPa0.3 kmCalmFogFog
3:55 AM12 °C12 °C100 %1014.6 hPa0.3 kmCalmFogFog
4:15 AM12 °C12 °C100 %1014.6 hPa0.3 kmSSE (150°)7.4 km/hFogFog
4:35 AM12 °C12 °C100 %1014.6 hPa0.3 kmCalmFogFog
4:55 AM12 °C12 °C100 %1014.6 hPa0.3 kmSouth (180°)7.4 km/hFogFog
5:15 AM12 °C12 °C100 %1014.9 hPa0.3 kmCalmFogFog
5:35 AM12 °C12 °C100 %1015.2 hPa0.3 kmCalmFogFog
5:55 AM12 °C12 °C100 %1015.6 hPa0.3 kmCalmFogFog
6:15 AM12 °C12 °C100 %1015.6 hPa0.3 kmCalmFogFog
6:35 AM12 °C12 °C100 %1015.6 hPa0.3 kmCalmFogFog
6:55 AM12 °C12 °C100 %1015.6 hPa0.3 kmCalmFogFog
7:15 AM12 °C12 °C100 %1015.9 hPa0.3 kmCalmFogFog
7:35 AM12 °C12 °C100 %1016.3 hPa0.3 kmCalmFogFog
7:55 AM12 °C12 °C100 %1016.6 hPa0.3 kmCalmFogFog
8:15 AM12 °C12 °C100 %1016.6 hPa0.3 kmCalmFogFog
8:35 AM12 °C12 °C100 %1016.3 hPa1.3 kmESE (120°)5.6 km/hOvercast
8:55 AM13 °C13 °C100 %1016.9 hPa3.2 kmCalmOvercast
9:15 AM13 °C13 °C100 %1016.9 hPa1.9 kmCalmOvercast
9:35 AM13 °C13 °C100 %1017.3 hPa12.9 kmSouth (170°)9.3 km/hOvercast
9:55 AM14 °C14 °C100 %1017.3 hPa14.5 kmSouth (190°)7.4 km/hOvercast
10:15 AM15 °C15 °C100 %1017.3 hPa16.1 kmSouth (170°)9.3 km/hScattered Clouds
10:35 AM17 °C14 °C82 %1017.6 hPa16.1 kmSSE (150°)7.4 km/hScattered Clouds
10:55 AM18 °C14 °C77 %1017.3 hPa16.1 kmSE (140°)5.6 km/hOvercast
11:15 AM18 °C14 °C77 %1017.3 hPa16.1 kmSSW (210°)9.3 km/hMostly Cloudy
11:35 AM18 °C14 °C77 %1017.3 hPa16.1 kmSW (220°)9.3 km/hMostly Cloudy
11:55 AM19 °C14 °C73 %1017.3 hPa16.1 kmSouth (170°)5.6 km/hOvercast
12:15 PM19 °C14 °C73 %1016.9 hPa16.1 kmSouth (170°)5.6 km/hMostly Cloudy
12:35 PM19 °C14 °C73 %1016.6 hPa16.1 kmCalmMostly Cloudy
12:55 PM20 °C14 °C68 %1016.3 hPa16.1 kmCalmMostly Cloudy
1:15 PM20 °C14 °C68 %1016.3 hPa11.3 kmWNW (300°)5.6 km/hOvercast
1:35 PM20 °C14 °C68 %1015.9 hPa11.3 kmWest (270°)5.6 km/hOvercast
1:55 PM20 °C14 °C68 %1015.9 hPa16.1 kmCalmMostly Cloudy
2:15 PM20 °C14 °C68 %1015.9 hPa16.1 kmNNW (330°)13 km/hMostly Cloudy
2:35 PM19 °C14 °C73 %1015.9 hPa16.1 kmCalmScattered Clouds
2:55 PM21 °C14 °C64 %1015.6 hPa16.1 kmCalmPartly Cloudy
3:15 PM20 °C14 °C68 %1015.6 hPa16.1 kmNorth (350°)5.6 km/hMostly Cloudy
3:35 PM20 °C14 °C68 %1015.6 hPa16.1 kmWest (260°)5.6 km/hMostly Cloudy
3:55 PM21 °C14 °C64 %1015.6 hPa16.1 kmNNW (330°)9.3 km/hMostly Cloudy
4:15 PM20 °C15 °C73 %1015.6 hPa16.1 kmNorth (350°)9.3 km/hScattered Clouds
4:35 PM20 °C15 °C73 %1015.6 hPa16.1 kmCalmPartly Cloudy
4:55 PM19 °C14 °C73 %1015.6 hPa16.1 kmNW (320°)7.4 km/hPartly Cloudy
5:15 PM18 °C14 °C77 %1015.6 hPa16.1 kmCalmClear
5:35 PM17 °C14 °C82 %1015.9 hPa16.1 kmCalmClear
5:55 PM17 °C14 °C82 %1015.9 hPa16.1 kmCalmClear
6:15 PM16 °C14 °C88 %1015.9 hPa16.1 kmCalmClear
6:35 PM14 °C14 °C100 %1016.3 hPa16.1 kmCalmClear
6:55 PM14 °C13 °C94 %1016.6 hPa16.1 kmCalmClear
7:15 PM14 °C13 °C94 %1016.9 hPa16.1 kmCalmClear
7:35 PM13 °C13 °C100 %1016.9 hPa16.1 kmCalmClear
7:55 PM13 °C12 °C94 %1017.3 hPa12.9 kmCalmClear
8:15 PM13 °C12 °C94 %1017.3 hPa9.7 kmCalmClear
8:35 PM12 °C12 °C100 %1017.6 hPa11.3 kmNorth (350°)7.4 km/hMostly Cloudy
8:55 PM14 °C13 °C94 %1017.6 hPa16.1 kmNorth (360°)7.4 km/hOvercast
9:15 PM14 °C13 °C94 %1017.9 hPa14.5 kmNorth (350°)5.6 km/hMostly Cloudy
9:35 PM14 °C13 °C94 %1017.9 hPa12.9 kmNNE (20°)5.6 km/hMostly Cloudy
9:55 PM13 °C13 °C100 %1017.9 hPa8 kmCalmPartly Cloudy
10:15 PM13 °C13 °C100 %1017.9 hPa4.8 kmCalmScattered Clouds
10:35 PM11 °C11 °C100 %1017.9 hPa4 kmCalmClear
10:55 PM12 °C12 °C100 %1018.3 hPa1.9 kmCalmClear
11:15 PM12 °C12 °C100 %1018.3 hPa4 kmCalmScattered Clouds
11:35 PM12 °C12 °C100 %1018.3 hPa4 kmCalmOvercast
11:55 PM13 °C13 °C100 %1018.3 hPa4 kmCalmMostly Cloudy
Hourly data recorded from K1R7, located 0 kilometers away from Brookhaven, Mississippi







STORIES FROM OUR PARTNERS